Weather Roundup
Issued by NWS

Home | Current Version | Previous Version | Text Only | Print | Product List | Glossary On
Versions: 1 2 3 4 5 6 7 8 9 10 11 12 13 14 15 16 17 18 19 20 21 22 23 24 25 26 27 28 29 30 31 32 33 34 35 36 37 38 39 40 41 42 43 44 45 46 47 48 49 50
000
NZUS93 KARX 180910
HRRWXR

CURRENT HOURLY OBSERVATIONS ACROSS
MUCH OF THE UPPER MISSISSIPPI VALLEY
NATIONAL WEATHER SERVICE LA CROSSE WI
400 AM CDT FRI APR 18 2014


...SOUTHEAST MINNESOTA...


CITY           SKY/WX    TMP DP  RH WIND       PRES   REMARKS
ROCHESTER      CLEAR     30  25  81 W3        30.32R HAZE
ROCHESTER/MAYO FAIR      29  25  84 CALM      30.33R
WINONA         CLEAR     30  28  93 CALM      30.35R
AUSTIN         CLEAR     27  25  93 CALM      30.31S FOG
ALBERT LEA       N/A     27  27 100 CALM      30.31R
DODGE CENTER   CLEAR     32  30  93 CALM      30.31S FOG
PRESTON        CLEAR     29  27  92 CALM      30.32R FOG
OWATONNA       MOCLDY    28  27  93 CALM      30.32R FOG
FARIBAULT      MOCLDY    30  25  80 CALM      30.32S HAZE
$$

...ELSEWHERE IN MINNESOTA...


CITY           SKY/WX    TMP DP  RH WIND       PRES   REMARKS
MINNEAPOLIS    PTCLDY    27  26  96 CALM      30.33S
INTNL FALLS    CLEAR     18  15  88 CALM      30.31F
DULUTH         MOCLDY    23  18  81 CALM      30.30S
RED WING       CLEAR     25  23  93 CALM      30.33S FOG
REDWOOD FALLS  CLOUDY    31  27  85 S5        30.30R WCI  26
MANKATO        CLOUDY    30  27  86 E7        30.31F WCI  23
WORTHINGTON    MOCLDY    30  25  80 E6        30.28S WCI  24
FAIRMONT       MOCLDY    28  27  93 CALM      30.31S
$$

...SOUTHWEST WISCONSIN...


CITY           SKY/WX    TMP DP  RH WIND       PRES   REMARKS
LA CROSSE      CLEAR     31  25  78 NE3       30.33R
PRAIRIE DU CHI CLEAR     29  27  91 CALM      30.32S
BOSCOBEL       CLEAR     27  25  92 CALM      30.32S FOG
LONE ROCK      CLEAR     30  27  88 CALM      30.32R
PLATTEVILLE    CLEAR     31  28  91 N5        30.31R WCI  26
FORT MC COY    CLEAR     25  23  92 CALM      30.34R
CAMP DOUGLAS   CLOUDY    33  30  91 NW5       30.31S WCI  28
VIROQUA        FAIR      30  28  90 N5        30.31R WCI  25
WIS DELLS      PTCLDY    28  27  95 CALM      30.30R
$$

...ELSEWHERE IN WISCONSIN...


CITY           SKY/WX    TMP DP  RH WIND       PRES   REMARKS
MILWAUKEE      MOCLDY    39  32  76 N5        30.29S
MADISON        CLEAR     30  28  92 CALM      30.30S FOG
GREEN BAY      CLOUDY    36  29  75 N6        30.29F WCI  31
EAU CLAIRE     CLEAR     24  22  91 CALM      30.33R
BLACK RVR FLS  FAIR      22  22 100 CALM      30.33R
MEDFORD        CLEAR     26  23  91 CALM      30.29S
WAUSAU         CLEAR     30  23  75 CALM      30.28S
WIS RAPIDS     CLOUDY    33  25  72 N5        30.32S WCI  29
MARSHFIELD     CLEAR     30  26  85 NW3       30.29F
RICE LAKE      CLEAR     21  19  94 CALM      30.34S FOG
$$

...NORTHEAST IOWA...


CITY           SKY/WX    TMP DP  RH WIND       PRES   REMARKS
WATERLOO       CLEAR     26  24  92 CALM      30.31S FOG
DUBUQUE        CLEAR     31  28  89 N9        30.29S WCI  23
DECORAH        CLEAR     28  28 100 NW3       30.31R FOG
MASON CITY     FOG       24  22  91 NE3       30.32S VSB 1
CHARLES CITY   CLEAR     30  27  86 NE6       30.31F WCI  24
OELWEIN        CLEAR    N/A N/A N/A NE5       30.31R
$$

...ELSEWHERE IN IOWA...


CITY           SKY/WX    TMP DP  RH WIND       PRES   REMARKS
DES MOINES     PTCLDY    36  29  75 E3        30.30S
IOWA CITY      CLEAR     34  29  82 NE3       30.32R
FORT DODGE     CLEAR     28  25  86 E3        30.30S
MARSHALLTOWN   CLEAR     30  28  92 CALM      30.30R
CEDAR RAPIDS   CLEAR     29  32 100 N5        30.29S HAZE    WCI  24
$$

...NORTHERN ILLINOIS...


CITY           SKY/WX    TMP DP  RH WIND       PRES   REMARKS
CHICAGO-OHARE  PTCLDY    44  36  73 NE10      30.24S
DUPAGE         PTCLDY    40  35  83 NW6       30.24S
CHICAGO-MIDWAY MOCLDY    46  38  73 CALM      30.24S
MOLINE         CLEAR     37  31  78 CALM      30.30R
ROCKFORD       PTCLDY    38  32  79 N8        30.30R WCI  32
STERLING       CLEAR     37  30  75 NE8       30.28S WCI  31
PEORIA         CLOUDY    45  35  68 N5        30.27F
$$

NOTE: "FAIR" INDICATES FEW OR NO CLOUDS BELOW 12,000 FEET WITH NO
SIGNIFICANT WEATHER AND/OR OBSTRUCTIONS TO VISIBILITY. WIND
SPEEDS ARE IN MILES-PER-HOUR.



USA.gov is the U.S. government's official web portal to all federal, state and local government web resources and services.